User: anonymous   Login
Location: Asheville, NC
(35.6000°N, 82.5500°W)
Time: 12:06:35
(UTC-04:00)
Language:

KKS-1 - Orbit

View from above orbital plane
View from above orbital plane
View from above satellite
View from above satellite

Ground track
Ground track

The orbit data is extracted from the following two-line orbital elements,

1 33499U 09002H   18224.94548195 +.00000066 +00000-0 +17792-4 0  9993
2 33499 098.3579 048.5596 0010443 109.6292 250.6044 14.75351614513129
Epoch (UTC): 12 August 2018 22:41:29
Eccentricity: 0.0010443
inclination: 98.3579°
perigee height: 637 km
apogee height: 651 km
right ascension of ascending node: 48.5596°
argument of perigee: 109.6292°
revolutions per day: 14.75351614
mean anomaly at epoch: 250.6044°
orbit number at epoch: 51312

The dashed part of the orbit path shows where the satellite is in the earth's shadow,  

DLR